RYR393A LFMP-EGSS

Flight info

Callsign RYR393A
Flight time 1h 36m
Altitude 34000
Route ORBIL G36 GAI DCT POKET DCT TUPAR UN861 DIKRO UM185 TELTU
Aircraft B738/M-SDE2E3FGHIRWXY/LB1

Departure

Time 2026-05-04 08:25
Airport Perpignan-Rivesaltes (Llabanère) Airport (LFMP)

Arrival

Time 2026-05-04 10:02
Airport London Stansted Airport (EGSS)
Time Latitude Longitude Altitude Speed Heading
2026-05-04 07:49 42.74018 2.86925 147 ft 0 kts 349°
2026-05-04 08:19 42.73954 2.87153 146 ft 9 kts 146°
2026-05-04 08:19 42.73889 2.87208 149 ft 13 kts 148°
2026-05-04 08:20 42.73812 2.87270 146 ft 13 kts 146°
2026-05-04 08:20 42.73738 2.87333 146 ft 12 kts 148°
2026-05-04 08:20 42.73665 2.87393 147 ft 12 kts 148°
2026-05-04 08:20 42.73599 2.87459 147 ft 11 kts 122°
2026-05-04 08:21 42.73598 2.87493 146 ft 1 kts 65°
2026-05-04 08:21 42.73600 2.87496 146 ft 0 kts 63°
2026-05-04 08:24 42.73601 2.87500 146 ft 4 kts 63°
2026-05-04 08:24 42.73638 2.87588 146 ft 14 kts 60°
2026-05-04 08:24 42.73690 2.87610 147 ft 9 kts 326°
2026-05-04 08:25 42.73920 2.87418 147 ft 75 kts 328°
2026-05-04 08:25 42.74561 2.86882 148 ft 139 kts 328°
2026-05-04 08:25 42.75484 2.86118 533 ft 159 kts 329°
2026-05-04 08:25 42.76442 2.85381 1336 ft 160 kts 331°
2026-05-04 08:26 42.77420 2.84618 2075 ft 164 kts 329°
2026-05-04 08:27 42.86362 2.77012 6070 ft 281 kts 325°
2026-05-04 08:28 42.88043 2.75594 6919 ft 286 kts 325°
2026-05-04 08:28 42.89743 2.74160 7835 ft 289 kts 325°
2026-05-04 08:28 42.91459 2.72713 8743 ft 292 kts 326°
2026-05-04 08:28 42.93197 2.71245 9620 ft 296 kts 326°
2026-05-04 08:29 42.94962 2.69754 10390 ft 304 kts 326°
2026-05-04 08:29 42.96832 2.68168 10629 ft 330 kts 326°
2026-05-04 08:29 42.98847 2.66458 10959 ft 350 kts 326°
2026-05-04 08:31 43.14027 2.53575 16158 ft 379 kts 324°
2026-05-04 08:33 43.30136 2.39736 20641 ft 402 kts 323°
2026-05-04 08:33 43.32516 2.37679 21215 ft 406 kts 323°
2026-05-04 08:35 43.49703 2.22597 24811 ft 431 kts 321°
2026-05-04 08:35 43.52223 2.20340 25274 ft 433 kts 321°
2026-05-04 08:35 43.54755 2.18066 25696 ft 436 kts 321°
2026-05-04 08:35 43.57303 2.15774 26111 ft 439 kts 321°
2026-05-04 08:37 43.73002 2.01664 28416 ft 458 kts 322°
2026-05-04 08:37 43.75711 1.99320 28803 ft 461 kts 323°
2026-05-04 08:37 43.78416 1.97015 29143 ft 464 kts 323°
2026-05-04 08:38 43.81175 1.94668 29484 ft 466 kts 323°
2026-05-04 08:38 43.83944 1.92303 29815 ft 469 kts 323°
2026-05-04 08:38 43.86722 1.89916 30184 ft 470 kts 323°
2026-05-04 08:40 44.05344 1.72435 33014 ft 458 kts 317°
2026-05-04 08:40 44.07895 1.69786 33380 ft 457 kts 317°
2026-05-04 08:40 44.10449 1.67150 33794 ft 456 kts 318°
2026-05-04 08:41 44.13000 1.64526 33972 ft 459 kts 318°
2026-05-04 08:41 44.18165 1.59230 33960 ft 461 kts 318°
2026-05-04 08:42 44.23293 1.53983 33969 ft 454 kts 318°
2026-05-04 08:42 44.28399 1.48741 33962 ft 457 kts 318°
2026-05-04 08:43 44.33523 1.43465 33968 ft 458 kts 318°
2026-05-04 08:43 44.38661 1.38165 33971 ft 459 kts 318°
2026-05-04 08:44 44.43802 1.32849 33969 ft 461 kts 318°
2026-05-04 08:46 44.64380 1.11454 33964 ft 462 kts 318°
2026-05-04 08:46 44.69523 1.06077 33954 ft 460 kts 318°
2026-05-04 08:47 44.74649 1.00706 33944 ft 458 kts 318°
2026-05-04 08:47 44.79748 0.95351 33950 ft 457 kts 318°
2026-05-04 08:48 44.84829 0.90000 33952 ft 456 kts 318°
2026-05-04 08:48 44.89896 0.84654 33955 ft 455 kts 318°
2026-05-04 08:49 44.94101 0.80207 33958 ft 454 kts 318°
2026-05-04 08:50 45.11799 0.61416 33960 ft 455 kts 319°
2026-05-04 08:51 45.17032 0.56323 33967 ft 457 kts 321°
2026-05-04 08:51 45.22359 0.51354 33962 ft 459 kts 322°
2026-05-04 08:52 45.27689 0.46345 33956 ft 459 kts 321°
2026-05-04 08:52 45.33004 0.41293 33962 ft 460 kts 321°
2026-05-04 08:54 45.56227 0.25402 33962 ft 468 kts 336°
2026-05-04 08:55 45.62331 0.22161 33959 ft 468 kts 335°
2026-05-04 08:55 45.68417 0.18877 33961 ft 467 kts 335°
2026-05-04 09:01 46.32098 -0.16039 33970 ft 467 kts 336°
2026-05-04 09:01 46.38165 -0.19410 33982 ft 468 kts 336°
2026-05-04 09:02 46.44211 -0.22778 33958 ft 468 kts 335°
2026-05-04 09:02 46.50293 -0.26173 33971 ft 468 kts 335°
2026-05-04 09:03 46.56369 -0.29573 33981 ft 468 kts 335°
2026-05-04 09:03 46.62456 -0.32988 33979 ft 469 kts 335°
2026-05-04 09:04 46.68541 -0.36410 33969 ft 469 kts 335°
2026-05-04 09:04 46.74626 -0.39840 33961 ft 469 kts 335°
2026-05-04 09:05 46.80705 -0.43275 33980 ft 468 kts 335°
2026-05-04 09:05 46.86778 -0.46715 33967 ft 468 kts 335°
2026-05-04 09:06 46.92850 -0.50163 33963 ft 468 kts 335°
2026-05-04 09:08 47.17114 -0.64025 33967 ft 468 kts 335°
2026-05-04 09:08 47.23179 -0.67512 33983 ft 468 kts 335°
2026-05-04 09:09 47.29243 -0.71007 33969 ft 468 kts 335°
2026-05-04 09:09 47.35298 -0.74505 33981 ft 468 kts 335°
2026-05-04 09:10 47.41311 -0.77987 33976 ft 467 kts 335°
2026-05-04 09:10 47.47362 -0.81501 33983 ft 467 kts 335°
2026-05-04 09:11 47.53678 -0.83832 33988 ft 473 kts 354°
2026-05-04 09:11 47.60269 -0.84042 33977 ft 474 kts 358°
2026-05-04 09:12 47.66863 -0.84117 33972 ft 474 kts 358°
2026-05-04 09:14 47.93185 -0.84854 33971 ft 472 kts 357°
2026-05-04 09:14 47.99759 -0.85058 33968 ft 473 kts 357°
2026-05-04 09:15 48.06335 -0.85260 33963 ft 472 kts 357°
2026-05-04 09:15 48.12905 -0.85463 33969 ft 472 kts 357°
2026-05-04 09:17 48.42405 -0.86381 33985 ft 471 kts 357°
2026-05-04 09:18 48.48953 -0.86586 33983 ft 470 kts 357°
2026-05-04 09:18 48.55494 -0.86791 33985 ft 470 kts 357°
2026-05-04 09:19 48.61989 -0.86996 33984 ft 470 kts 357°
2026-05-04 09:19 48.68528 -0.87202 33989 ft 470 kts 357°
2026-05-04 09:20 48.75077 -0.87410 33989 ft 471 kts 357°
2026-05-04 09:20 48.81625 -0.87617 33985 ft 471 kts 357°
2026-05-04 09:21 48.88179 -0.87826 33988 ft 471 kts 357°
2026-05-04 09:21 48.94738 -0.88035 33995 ft 471 kts 357°
2026-05-04 09:22 49.01297 -0.88245 33988 ft 472 kts 357°
2026-05-04 09:22 49.07861 -0.88456 33997 ft 472 kts 357°
2026-05-04 09:23 49.14426 -0.88667 33995 ft 472 kts 357°
2026-05-04 09:23 49.20989 -0.88878 33995 ft 472 kts 357°
2026-05-04 09:25 49.47231 -0.89730 34003 ft 471 kts 357°
2026-05-04 09:26 49.53786 -0.89944 34010 ft 471 kts 357°
2026-05-04 09:26 49.60334 -0.90159 34004 ft 471 kts 357°
2026-05-04 09:27 49.66881 -0.90374 34005 ft 470 kts 357°
2026-05-04 09:27 49.73423 -0.90589 34006 ft 470 kts 357°
2026-05-04 09:28 49.76710 -0.90631 33750 ft 474 kts
2026-05-04 09:28 49.79992 -0.90294 33452 ft 472 kts
2026-05-04 09:28 49.83258 -0.89778 33178 ft 471 kts
2026-05-04 09:28 49.86506 -0.89225 32912 ft 469 kts
2026-05-04 09:29 49.89740 -0.88701 32571 ft 464 kts
2026-05-04 09:29 49.92939 -0.88220 32163 ft 459 kts
2026-05-04 09:29 49.96108 -0.87769 31717 ft 456 kts
2026-05-04 09:29 49.99258 -0.87326 31286 ft 453 kts
2026-05-04 09:30 50.02389 -0.86886 30854 ft 450 kts
2026-05-04 09:30 50.05500 -0.86444 30431 ft 448 kts
2026-05-04 09:30 50.08595 -0.86003 29990 ft 446 kts
2026-05-04 09:30 50.11679 -0.85562 29494 ft 443 kts
2026-05-04 09:31 50.14739 -0.85124 29020 ft 440 kts
2026-05-04 09:31 50.17774 -0.84690 28592 ft 436 kts
2026-05-04 09:31 50.20781 -0.84259 28147 ft 433 kts
2026-05-04 09:31 50.23764 -0.83830 27727 ft 429 kts
2026-05-04 09:32 50.26726 -0.83405 27281 ft 425 kts
2026-05-04 09:32 50.29660 -0.82983 26849 ft 422 kts
2026-05-04 09:34 50.48678 -0.80233 24058 ft 402 kts
2026-05-04 09:34 50.51447 -0.79831 23652 ft 399 kts
2026-05-04 09:34 50.54200 -0.79431 23179 ft 396 kts
2026-05-04 09:34 50.56930 -0.79033 22722 ft 392 kts
2026-05-04 09:35 50.59632 -0.78639 22314 ft 388 kts
2026-05-04 09:35 50.62306 -0.78249 21884 ft 384 kts
2026-05-04 09:35 50.64955 -0.77862 21470 ft 381 kts
2026-05-04 09:35 50.67578 -0.77478 21081 ft 377 kts
2026-05-04 09:37 50.85097 -0.73162 18669 ft 353 kts 22°
2026-05-04 09:37 50.87369 -0.71643 18478 ft 357 kts 23°
2026-05-04 09:38 50.89674 -0.70098 18270 ft 362 kts 22°
2026-05-04 09:38 50.91996 -0.68554 18029 ft 361 kts 22°
2026-05-04 09:38 50.94303 -0.67034 17795 ft 358 kts 22°
2026-05-04 09:38 50.96596 -0.65535 17581 ft 355 kts 22°
2026-05-04 09:39 50.98868 -0.64056 17382 ft 352 kts 22°
2026-05-04 09:39 51.01128 -0.62588 17179 ft 350 kts 22°
2026-05-04 09:39 51.03381 -0.61125 16990 ft 349 kts 22°
2026-05-04 09:39 51.05627 -0.59667 16785 ft 349 kts 22°
2026-05-04 09:40 51.07871 -0.58209 16588 ft 349 kts 22°
2026-05-04 09:40 51.10117 -0.56748 16389 ft 349 kts 22°
2026-05-04 09:40 51.12363 -0.55286 16196 ft 349 kts 22°
2026-05-04 09:40 51.14583 -0.53839 15998 ft 349 kts 22°
2026-05-04 09:41 51.16832 -0.52372 15799 ft 349 kts 22°
2026-05-04 09:42 51.32450 -0.42140 14407 ft 342 kts 22°
2026-05-04 09:43 51.34646 -0.40695 14222 ft 340 kts 22°
2026-05-04 09:43 51.36826 -0.39259 14025 ft 339 kts 22°
2026-05-04 09:43 51.39003 -0.37824 13827 ft 338 kts 22°
2026-05-04 09:43 51.41171 -0.36393 13614 ft 336 kts 22°
2026-05-04 09:44 51.43268 -0.35008 13418 ft 335 kts 22°
2026-05-04 09:44 51.45395 -0.33499 13221 ft 333 kts 25°
2026-05-04 09:44 51.47481 -0.31906 13027 ft 332 kts 26°
2026-05-04 09:46 51.61540 -0.21040 12071 ft 319 kts 25°
2026-05-04 09:46 51.63512 -0.19522 12056 ft 308 kts 25°
2026-05-04 09:46 51.65399 -0.18069 12059 ft 294 kts 25°
2026-05-04 09:47 51.67202 -0.16679 12058 ft 281 kts 25°
2026-05-04 09:47 51.68929 -0.15347 12056 ft 270 kts 25°
2026-05-04 09:49 51.79915 -0.07197 10725 ft 268 kts 22°
2026-05-04 09:49 51.81710 -0.05950 9933 ft 290 kts 23°
2026-05-04 09:49 51.83559 -0.04661 9787 ft 290 kts 23°
2026-05-04 09:51 51.92093 0.07730 8427 ft 289 kts 70°
2026-05-04 09:51 51.92772 0.10771 8148 ft 286 kts 71°
2026-05-04 09:51 51.93420 0.13804 7818 ft 285 kts 76°
2026-05-04 09:51 51.93475 0.16947 7646 ft 275 kts 105°
2026-05-04 09:52 51.92577 0.19525 7532 ft 258 kts 140°
2026-05-04 09:52 51.91035 0.20706 7356 ft 243 kts 175°
2026-05-04 09:52 51.89425 0.20191 6968 ft 239 kts 212°
2026-05-04 09:52 51.88323 0.18236 6569 ft 237 kts 240°
2026-05-04 09:53 51.87513 0.15911 6143 ft 238 kts 240°
2026-05-04 09:53 51.86701 0.13584 5756 ft 237 kts 241°
2026-05-04 09:53 51.85890 0.11247 5458 ft 238 kts 241°
2026-05-04 09:53 51.85084 0.08918 5239 ft 236 kts 241°
2026-05-04 09:54 51.84285 0.06601 4995 ft 236 kts 241°
2026-05-04 09:54 51.83488 0.04286 4731 ft 235 kts 241°
2026-05-04 09:54 51.82695 0.01980 4460 ft 235 kts 241°
2026-05-04 09:54 51.81900 -0.00326 4223 ft 234 kts 241°
2026-05-04 09:55 51.81026 -0.02549 3911 ft 236 kts 224°
2026-05-04 09:55 51.79597 -0.03671 3733 ft 227 kts 182°
2026-05-04 09:55 51.78141 -0.03059 3654 ft 214 kts 144°
2026-05-04 09:55 51.76984 -0.01613 3531 ft 208 kts 141°
2026-05-04 09:56 51.75858 -0.00163 3300 ft 207 kts 134°
2026-05-04 09:56 51.75255 0.01827 3130 ft 195 kts 89°
2026-05-04 09:56 51.75699 0.03783 2901 ft 189 kts 49°
2026-05-04 09:56 51.76590 0.05328 2623 ft 189 kts 48°
2026-05-04 09:57 51.77469 0.06815 2542 ft 177 kts 45°
2026-05-04 09:57 51.78326 0.08147 2409 ft 167 kts 44°
2026-05-04 09:57 51.79172 0.09430 2137 ft 167 kts 44°
2026-05-04 09:57 51.80025 0.10718 2052 ft 169 kts 43°
2026-05-04 09:58 51.80884 0.12012 2011 ft 168 kts 43°
2026-05-04 09:58 51.81720 0.13272 1990 ft 163 kts 43°
2026-05-04 09:58 51.82554 0.14529 1789 ft 162 kts 43°
2026-05-04 10:00 51.87724 0.22315 390 ft 142 kts 43°
2026-05-04 10:00 51.88385 0.23306 353 ft 103 kts 43°
2026-05-04 10:02 51.88944 0.24929 348 ft 23 kts 43°
2026-05-04 10:04 51.89186 0.25944 348 ft 11 kts 99°
2026-05-04 10:04 51.89213 0.26002 351 ft 0 kts 43°
2026-05-04 10:04 51.89213 0.26003 351 ft 0 kts 43°